Hourly Weather Roundup
Issued by NWS Central Illinois

Home | Current Version | Previous Version | Text Only | Print | Product List | Glossary On
Versions: 1 2 3 4 5 6 7 8 9 10 11 12 13 14 15 16 17 18 19 20 21 22 23 24 25 26 27 28 29 30 31 32 33 34 35 36 37 38 39 40 41 42 43 44 45 46 47 48 49 50
000
NZUS43 KILX 071210
HWRILX

AREA WEATHER ROUNDUP
NATIONAL WEATHER SERVICE, LINCOLN IL
600 AM CST SUN FEB 07 2016


CITY           SKY/WX    TMP DP  RH WIND       PRES   REMARKS
BLOOMINGTON    MOCLDY    37  31  79 SW17      29.95F WCI  27
6HR MIN TEMP:  30; 6HR MAX TEMP:  37;

CHAMPAIGN      PTCLDY    34  28  79 S12       29.99F WCI  25
6HR MIN TEMP:  31; 6HR MAX TEMP:  36;

DANVILLE       CLOUDY    36  27  70 SW13      29.97F WCI  27
6HR MIN TEMP:  32; 6HR MAX TEMP:  36;

DECATUR        CLOUDY    38  27  64 SW17      29.99F WCI  28
6HR MIN TEMP:  34; 6HR MAX TEMP:  38;

EFFINGHAM      PTCLDY    38  25  60 S9        30.06F WCI  31
FLORA          PTCLDY    36  26  67 SW8       30.08F WCI  29
6HR MIN TEMP:  35; 6HR MAX TEMP:  39;

GALESBURG      CLOUDY    37  30  76 SW16      29.89S WCI  27
JACKSONVILLE   CLOUDY    41  31  68 S14       29.97F WCI  33
6HR MIN TEMP:  39; 6HR MAX TEMP:  42;

LACON          CLOUDY    38  28  69 SW13G18   29.89F WCI  30
6HR MIN TEMP:  33; 6HR MAX TEMP:  38;

LAWRENCEVILLE  CLOUDY    33  26  75 S9        30.10F WCI  25
6HR MIN TEMP:  30; 6HR MAX TEMP:  38;

LITCHFIELD     PTCLDY    32  26  78 S8        30.03S WCI  25
$$


CITY           SKY/WX    TMP DP  RH WIND       PRES   REMARKS
LINCOLN        PTCLDY    37  32  81 S8        29.96F WCI  31
6HR MIN TEMP:  32; 6HR MAX TEMP:  39;

MACOMB         CLOUDY    38  30  73 SW16      29.93F WCI  28
MATTOON        CLOUDY    37  24  59 S9        30.01F WCI  30
6HR MIN TEMP:  37; 6HR MAX TEMP:  40;

MT CARMEL AP   PTCLDY    36  25  64 CALM      30.10F
OLNEY-NOBLE AP CLOUDY    36  27  69 S6        30.09F WCI  31
PARIS          CLOUDY    37  28  71 SW10      30.03F WCI  29
6HR MIN TEMP:  35; 6HR MAX TEMP:  37;

PEORIA         CLOUDY    36  28  73 S10       29.92F WCI  28
6HR MIN TEMP:  30; 6HR MAX TEMP:  37;

PONTIAC        CLOUDY    38  32  78 S16       29.93F WCI  29
RANTOUL        CLOUDY    38  31  74 SW10      29.98F WCI  31
6HR MIN TEMP:  36; 6HR MAX TEMP:  39;

ROBINSON       PTCLDY    36  25  65 S9        30.09F WCI  29
6HR MIN TEMP:  33; 6HR MAX TEMP:  39;

SPRINGFIELD    CLOUDY    39  28  64 S16       29.98F WCI  30
6HR MIN TEMP:  34; 6HR MAX TEMP:  40;

TAYLORVILLE    PTCLDY    34  28  80 S12       30.01F WCI  25
$$

...REGIONAL REPORTS...


CITY           SKY/WX    TMP DP  RH WIND       PRES   REMARKS
CHICAGO O`HARE MOCLDY    38  28  67 SW16      29.87F WCI  29
KANKAKEE       CLOUDY    36  30  78 S13       29.95F WCI  27
MOLINE         PTCLDY    38  28  67 SW14      29.83F WCI  30
MOUNT STERLING CLOUDY    39  28  63 SW15      29.93F WCI  31
MOUNT VERNON   CLOUDY    34  21  60 S7        30.09F WCI  28
PITTSFIELD     MOCLDY    40  30  67 S8        29.97F WCI  35
QUINCY         PTCLDY    37  28  70 SW14      29.94F WCI  28
ROCKFORD       CLOUDY    37  29  72 SW14      29.85F WCI  28
$$


CITY           SKY/WX    TMP DP  RH WIND       PRES   REMARKS
BURLINGTON     CLOUDY    36  29  75 SW15      29.87F WCI  27
CEDAR RAPIDS   CLOUDY    36  30  79 SW10      29.81S WCI  28
DES MOINES     CLOUDY    36  27  69 W10       29.87R WCI  28
KIRKSVILLE     PTCLDY    38  26  62 SW13      29.92F WCI  30
OTTUMWA        CLOUDY    37  28  70 SW17      29.86R WCI  27
ST LOUIS       MOCLDY    42  24  49 SW14      30.04F WCI  35
$$


CITY           SKY/WX    TMP DP  RH WIND       PRES   REMARKS
TERRE HAUTE    CLOUDY    36  23  59 SW8       30.06F WCI  30
EVANSVILLE     CLOUDY    34  23  64 SW5       30.15F WCI  30
INDIANAPOLIS   CLOUDY    33  22  63 SW9       30.04F WCI  25
LAFAYETTE      CLOUDY    35  25  66 SW6       30.00F WCI  30
MADISON        CLOUDY    37  29  72 SW12G21   29.75F WCI  29
MILWAUKEE      CLOUDY    36  29  75 S9        29.80F WCI  29
$$





USA.gov is the U.S. government's official web portal to all federal, state and local government web resources and services.